This demonstration page uses our WeatherBlox Daily Observations layout. Learn more.

Left ArrowRight Arrow

Hourly Observations for April 22, 2015

Temp ( °F °C ) Dew Point ( °F °C ) Humidity (%) Winds ( mph kmh ) Pressure ( in mb ) Visibility ( mi km ) Precip ( " mm )
12:53 am 00:53 Clear 41 5 30 -1.1 65 65 ENE 12 19 29.81 1009 10 16 N/A
1:53 am 01:53 Clear 39 3.9 29 -1.7 67 67 ENE 14 22 29.80 1009 10 16 N/A
2:53 am 02:53 Clear 37 2.8 28 -2.2 70 70 ENE 9 15 29.80 1009 10 16 N/A
3:53 am 03:53 Clear 36 2.2 27 -2.8 70 70 ENE 9 15 29.80 1009 10 16 N/A
4:53 am 04:53 Clear 35 1.7 27 -2.8 72 72 E 8 13 29.80 1009 10 16 N/A
5:53 am 05:53 Clear 35 1.7 26 -3.3 70 70 ENE 7 11 29.80 1009 10 16 N/A
6:53 am 06:53 Sunny 35 1.7 27 -2.8 72 72 E 6 9 29.81 1010 10 16 N/A
7:53 am 07:53 Sunny 38 3.3 28 -2.2 68 68 N N/A 29.82 1010 10 16 N/A
8:53 am 08:53 Mostly Cloudy 42 5.6 29 -1.7 60 60 VRB 3 6 29.82 1010 10 16 N/A
9:53 am 09:53 Sunny 48 8.9 31 -0.6 52 52 SSE 3 6 29.82 1010 10 16 N/A
10:53 am 10:53 Mostly Sunny 54 12.2 33 0.6 45 45 ESE 3 6 29.80 1009 10 16 N/A
11:53 am 11:53 Sunny 62 16.7 33 0.6 34 34 N N/A 29.78 1008 10 16 N/A
12:53 pm 12:53 Sunny 66 18.9 33 0.6 29 29 VRB 7 11 29.76 1008 10 16 N/A
1:53 pm 13:53 Sunny 69 20.6 33 0.6 26 26 VRB 5 7 29.74 1007 10 16 N/A
2:53 pm 14:53 Sunny 70 21.1 34 1.1 27 27 ESE 5 7 29.73 1007 10 16 N/A
3:53 pm 15:53 Sunny 73 22.8 35 1.7 25 25 VRB 3 6 29.71 1006 10 16 N/A
4:53 pm 16:53 Sunny 74 23.3 34 1.1 23 23 VRB 3 6 29.68 1005 10 16 N/A
5:53 pm 17:53 Sunny 72 22.2 34 1.1 25 25 VRB 3 6 29.67 1005 10 16 N/A
6:53 pm 18:53 Sunny 69 20.6 36 2.2 30 30 E 8 13 29.65 1004 10 16 N/A
7:53 pm 19:53 Sunny 63 17.2 34 1.1 34 34 E 15 24 29.67 1005 10 16 N/A
8:53 pm 20:53 Cloudy 58 14.4 32 undefined 38 38 ENE 15 24 29.68 1005 10 16 N/A
9:53 pm 21:53 Cloudy 57 13.9 33 0.6 41 41 SE 6 9 29.70 1006 10 16 N/A
10:22 pm 22:22 Cloudy with Light Rain 55 13 45 7 67 67 SW 17 28 29.68 1005 10 16 N/A
10:53 pm 22:53 Cloudy 55 12.8 46 7.8 72 72 WSW 9 15 29.75 1007 10 16 N/A
11:53 pm 23:53 Cloudy with Light Rain 52 11.1 48 8.9 86 86 W 3 6 29.72 1007 10 16 0.01 0.25

Powered by AerisWeather